"startDT [UTC]","vpos","CH4 [ppm]","stdev(CH4) [ppm]","CO2 [ppm]","stdev(CO2) [ppm]","H2O_reported [%]","stdev(H2O_reported)","CavityPressure [torr]","CavityTemp [C]","OutletValve","CH4_dry [ppm]","CO2_dry [ppm]","DasTemp [C]","EtalonTemp [C]","WarmBoxTemp [C]","MPVPosition","T_ECpre [C]","T_EC1 [C]","T_EC2 [C]","p_inlet [hPa]","p_in [hPa]","p_out [hPa]","T_inlet [C]","RH_inlet [%]","dwpt_inlet [C]","T_vent [C]","RH_vent [%]","dwpt_vent [C]","flow_vent [l min-1]","flow_inlet [l min-1]","dwpt_sample [C]","T_room [C]"
2016-07-07 00:00:00,3.0,1.87578,0.00684,396.726,2.090,0.1801,0.2823,139.972,45.000,31372.10783,1.88023,397.608,36.147,45.069,45.000,0.00,0.09,-272.79,-272.85,-9,465,-943,22.0,25.3,1.2,22.0,25.6,1.4,5.73,1.63,0.6,27.5
2016-07-07 00:01:00,3.0,1.87560,0.00047,397.100,0.095,0.0315,0.0021,139.997,45.000,31348.93021,1.87619,397.247,36.148,45.069,45.000,0.00,0.09,-272.79,-272.85,-10,465,-943,22.0,25.3,1.2,22.0,25.5,1.3,5.73,1.95,0.6,27.5
2016-07-07 00:02:00,3.0,1.87560,0.00042,397.346,0.048,0.0288,0.0018,139.996,45.000,31343.16827,1.87611,397.480,36.158,45.070,45.000,0.00,0.09,-272.78,-272.85,-9,466,-943,21.9,25.4,1.2,22.0,25.7,1.4,5.73,1.71,0.6,27.5
2016-07-07 00:03:00,3.0,1.87598,0.00045,397.431,0.023,0.0249,0.0025,139.998,45.000,31339.67260,1.87646,397.550,36.176,45.070,45.000,0.00,0.09,-272.79,-272.85,-10,466,-943,21.9,25.5,1.3,22.0,25.8,1.5,5.73,1.82,0.6,27.5
2016-07-07 00:04:00,3.0,1.87573,0.00052,397.485,0.022,0.0196,0.0027,139.997,45.000,31338.64374,1.87610,397.579,36.184,45.070,45.000,0.00,0.09,-272.79,-272.84,-9,467,-943,22.0,25.4,1.3,22.0,25.7,1.5,5.73,1.87,0.6,27.5
2016-07-07 00:05:00,3.0,1.87592,0.00037,397.488,0.036,0.0151,0.0021,139.998,45.000,31339.33806,1.87620,397.560,36.186,45.070,45.000,0.00,0.09,-272.78,-272.84,-10,467,-943,22.0,25.4,1.3,22.0,25.8,1.5,5.73,1.67,0.6,27.6
2016-07-07 00:06:00,3.0,1.87599,0.00036,397.507,0.031,0.0120,0.0017,139.999,45.000,31340.88189,1.87620,397.564,36.179,45.070,45.000,0.00,0.09,-272.79,-272.85,-9,468,-943,22.0,25.5,1.3,22.0,25.9,1.6,5.73,1.96,0.6,27.6
2016-07-07 00:07:00,3.0,1.87614,0.00050,397.534,0.029,0.0098,0.0026,140.001,45.000,31340.39366,1.87633,397.581,36.186,45.070,45.001,0.00,0.09,-272.79,-272.85,-10,468,-943,22.0,25.4,1.3,22.1,25.7,1.5,5.73,1.66,0.5,27.6
2016-07-07 00:08:00,3.0,1.87600,0.00044,397.562,0.027,0.0092,0.0021,140.000,45.001,31338.71985,1.87616,397.606,36.188,45.071,45.001,0.00,0.09,-272.79,-272.84,-10,468,-943,22.0,25.5,1.3,22.1,25.9,1.6,5.73,1.88,0.5,27.6
2016-07-07 00:09:00,3.0,1.87611,0.00046,397.550,0.029,0.0065,0.0017,139.999,45.000,31340.06261,1.87621,397.582,36.186,45.071,45.001,0.00,0.09,-272.79,-272.85,-9,468,-943,22.0,25.6,1.4,22.1,26.0,1.7,5.73,1.79,0.6,27.6
2016-07-07 00:10:00,3.0,1.87628,0.00054,397.553,0.035,0.0064,0.0012,139.998,45.000,31338.25731,1.87641,397.583,36.151,45.070,45.001,0.00,0.09,-272.78,-272.86,-10,469,-943,22.0,25.6,1.4,22.1,26.1,1.7,5.73,1.74,0.6,27.6
2016-07-07 00:11:00,3.0,1.87619,0.00029,397.569,0.027,0.0058,0.0018,139.999,45.000,31337.95824,1.87632,397.597,36.127,45.070,45.000,0.00,0.09,-272.79,-272.84,-9,469,-943,22.1,25.5,1.4,22.1,26.0,1.7,5.73,1.92,0.6,27.6
2016-07-07 00:12:00,3.0,1.87634,0.00037,397.593,0.040,0.0051,0.0019,140.000,45.000,31337.11171,1.87640,397.616,36.120,45.070,45.000,0.00,0.09,-272.78,-272.84,-10,469,-943,22.1,25.4,1.4,22.1,25.8,1.6,5.73,1.65,0.6,27.6
2016-07-07 00:13:00,3.0,1.87614,0.00048,397.587,0.025,0.0048,0.0018,139.998,45.000,31337.07828,1.87626,397.612,36.119,45.069,45.000,0.00,0.09,-272.79,-272.85,-9,469,-943,22.1,25.9,1.6,22.1,26.2,1.8,5.73,1.97,0.6,27.6
2016-07-07 00:14:00,3.0,1.87594,0.00035,397.587,0.028,0.0040,0.0017,139.998,45.000,31339.22881,1.87600,397.606,36.119,45.069,45.000,0.00,0.09,-272.79,-272.84,-10,469,-943,22.1,25.6,1.5,22.1,26.1,1.8,5.73,1.66,0.6,27.6
2016-07-07 00:15:00,3.0,1.87605,0.00048,397.584,0.032,0.0043,0.0019,140.000,45.000,31339.18124,1.87617,397.605,36.097,45.069,45.000,0.00,0.09,-272.78,-272.84,-9,470,-943,22.2,25.7,1.6,22.2,26.2,1.9,5.73,1.90,0.6,27.7
2016-07-07 00:16:00,3.0,1.87619,0.00040,397.587,0.026,0.0038,0.0024,139.997,45.000,31338.60555,1.87622,397.605,36.122,45.070,45.000,0.00,0.09,-272.79,-272.84,-10,470,-943,22.2,26.0,1.7,22.2,26.4,2.0,5.73,1.79,0.6,27.6
2016-07-07 00:17:00,3.0,1.87591,0.00036,397.558,0.025,0.0023,0.0017,139.999,45.000,31341.46165,1.87595,397.569,36.123,45.070,45.000,0.00,0.09,-272.78,-272.85,-9,470,-943,22.2,25.8,1.7,22.2,26.3,1.9,5.73,1.74,0.6,27.7
2016-07-07 00:18:00,3.0,1.87610,0.00046,397.575,0.024,0.0030,0.0020,139.998,45.000,31340.25361,1.87617,397.589,36.126,45.070,45.000,0.00,0.09,-272.78,-272.84,-11,470,-943,22.2,25.9,1.7,22.2,26.5,2.0,5.73,1.93,0.6,27.7
2016-07-07 00:19:00,3.0,1.87610,0.00042,397.581,0.029,0.0034,0.0024,139.998,45.000,31340.22132,1.87615,397.596,36.142,45.070,45.000,0.00,0.09,-272.78,-272.84,-9,470,-943,22.3,25.3,1.5,22.3,25.9,1.8,5.73,1.65,0.6,27.7
2016-07-07 00:20:00,0.0,1.89575,0.00645,392.826,2.026,0.7135,0.2843,140.029,45.000,31703.39090,1.90834,396.273,36.180,45.070,45.000,0.00,0.09,-272.79,-272.85,-12,522,-942,22.3,25.2,1.4,22.2,25.8,1.7,5.73,1.99,0.6,27.7
2016-07-07 00:21:00,0.0,1.89654,0.00042,391.485,0.220,0.8668,0.0080,140.002,45.000,31735.68123,1.91317,395.689,36.196,45.070,45.000,0.00,0.09,-272.78,-272.84,-11,523,-942,22.3,25.4,1.5,22.2,25.8,1.7,5.73,1.67,0.6,27.7
2016-07-07 00:22:00,0.0,1.89660,0.00042,391.322,0.260,0.8857,0.0070,140.000,45.000,31741.86865,1.91359,395.599,36.238,45.070,45.001,0.00,0.09,-272.77,-272.84,-12,523,-942,22.3,25.7,1.7,22.2,26.3,2.0,5.73,2.01,0.6,27.7
2016-07-07 00:23:00,0.0,1.89690,0.00047,391.307,0.253,0.8875,0.0119,139.998,45.001,31747.56321,1.91397,395.603,36.249,45.071,45.001,0.00,0.09,-272.78,-272.85,-11,524,-942,22.3,25.7,1.7,22.3,26.2,2.0,5.73,1.67,0.6,27.7
2016-07-07 00:24:00,0.0,1.89634,0.00053,391.525,0.079,0.8832,0.0063,140.001,45.001,31754.32176,1.91329,395.804,36.234,45.070,45.000,0.00,0.09,-272.79,-272.84,-11,523,-942,22.3,25.5,1.6,22.3,26.2,2.0,5.73,2.02,0.6,27.7
2016-07-07 00:25:00,0.0,1.89648,0.00043,391.604,0.026,0.8790,0.0028,139.998,45.000,31757.66140,1.91331,395.862,36.220,45.069,45.000,0.00,0.09,-272.77,-272.85,-12,524,-942,22.3,25.3,1.5,22.3,26.0,1.9,5.73,1.66,0.6,27.7
2016-07-07 00:26:00,0.0,1.89650,0.00045,391.469,0.073,0.8827,0.0035,140.002,45.000,31765.79181,1.91347,395.748,36.192,45.069,44.999,0.00,0.09,-272.79,-272.84,-11,524,-942,22.4,25.4,1.6,22.3,26.0,1.9,5.73,2.01,0.6,27.7
2016-07-07 00:27:00,0.0,1.89678,0.00050,391.021,0.122,0.8976,0.0067,139.999,45.000,31767.52715,1.91399,395.368,36.186,45.069,44.999,0.00,0.09,-272.79,-272.85,-12,524,-942,22.4,25.9,1.9,22.3,26.2,2.0,5.73,1.67,0.6,27.7
2016-07-07 00:28:00,0.0,1.89677,0.00066,390.729,0.119,0.9117,0.0059,139.999,45.000,31769.43990,1.91433,395.142,36.152,45.069,44.999,0.00,0.09,-272.79,-272.84,-11,524,-942,22.4,26.2,2.1,22.3,26.8,2.3,5.73,2.00,0.6,27.7
2016-07-07 00:29:00,0.0,1.89596,0.00043,391.374,0.195,0.8910,0.0103,140.001,45.000,31772.08721,1.91309,395.680,36.128,45.069,44.999,0.00,0.09,-272.77,-272.84,-12,524,-942,22.4,25.6,1.7,22.3,26.4,2.1,5.73,1.68,0.6,27.7
2016-07-07 00:30:00,0.0,1.89619,0.00046,391.408,0.139,0.8842,0.0057,140.000,45.000,31772.95705,1.91313,395.691,36.137,45.069,45.000,0.00,0.09,-272.80,-272.84,-12,524,-942,22.4,25.3,1.6,22.3,25.9,1.8,5.73,1.99,0.6,27.7
2016-07-07 00:31:00,0.0,1.89602,0.00040,391.251,0.160,0.8927,0.0042,139.997,45.000,31772.87170,1.91317,395.569,36.139,45.070,45.000,0.00,0.09,-272.78,-272.84,-11,524,-942,22.4,25.6,1.7,22.3,26.2,2.0,5.73,1.69,0.6,27.7
2016-07-07 00:32:00,0.0,1.89642,0.00030,391.289,0.122,0.8906,0.0063,139.997,45.000,31775.17876,1.91351,395.604,36.129,45.070,45.000,0.00,0.09,-272.78,-272.83,-12,524,-942,22.4,25.6,1.7,22.3,26.1,2.0,5.73,1.98,0.6,27.7
2016-07-07 00:33:00,0.0,1.89655,0.00050,391.388,0.047,0.8887,0.0033,139.999,45.000,31775.35785,1.91362,395.689,36.127,45.070,45.000,0.00,0.09,-272.79,-272.85,-11,524,-942,22.4,25.4,1.6,22.3,26.1,1.9,5.73,1.70,0.6,27.7
2016-07-07 00:34:00,0.0,1.89694,0.00061,391.324,0.183,0.8909,0.0064,139.999,45.000,31777.08050,1.91402,395.644,36.125,45.070,45.000,0.00,0.09,-272.79,-272.84,-13,524,-942,22.4,25.6,1.7,22.3,26.1,1.9,5.73,1.97,0.6,27.7
2016-07-07 00:35:00,0.0,1.89648,0.00059,391.093,0.128,0.9069,0.0058,140.000,45.000,31780.03976,1.91394,395.479,36.124,45.070,45.000,0.00,0.09,-272.78,-272.83,-11,525,-942,22.4,26.0,2.0,22.3,26.5,2.1,5.73,1.72,0.6,27.7
2016-07-07 00:36:00,0.0,1.89195,0.00084,391.890,0.277,0.8717,0.0178,139.999,45.000,31782.92622,1.90878,396.107,36.120,45.070,45.000,0.00,0.09,-272.78,-272.84,-12,524,-942,22.4,24.9,1.3,22.4,25.9,1.9,5.73,1.95,0.6,27.8
2016-07-07 00:37:00,0.0,1.89147,0.00042,392.203,0.179,0.8537,0.0083,139.998,45.000,31781.99549,1.90783,396.336,36.123,45.070,45.000,0.00,0.09,-272.78,-272.85,-11,525,-942,22.4,24.4,1.0,22.3,25.1,1.4,5.73,1.73,0.6,27.7
2016-07-07 00:38:00,0.0,1.89095,0.00044,392.204,0.174,0.8540,0.0061,140.000,45.000,31783.93566,1.90728,396.341,36.124,45.070,45.000,0.00,0.09,-272.79,-272.84,-11,524,-942,22.4,24.4,1.0,22.3,24.9,1.3,5.73,1.93,0.6,27.7
2016-07-07 00:39:00,0.0,1.89081,0.00048,392.465,0.107,0.8461,0.0044,139.999,45.000,31783.78775,1.90699,396.564,36.124,45.069,45.000,0.00,0.09,-272.78,-272.84,-12,525,-942,22.4,24.1,0.9,22.3,24.8,1.2,5.73,1.76,0.6,27.7
2016-07-07 00:40:00,0.0,1.89067,0.00032,392.546,0.065,0.8419,0.0047,139.997,45.000,31784.29864,1.90674,396.630,36.124,45.069,45.000,0.00,0.09,-272.78,-272.85,-10,524,-942,22.4,24.1,0.8,22.3,24.6,1.1,5.73,1.90,0.6,27.7
2016-07-07 00:41:00,0.0,1.89047,0.00061,392.517,0.095,0.8440,0.0047,139.998,45.000,31785.30542,1.90660,396.609,36.117,45.070,45.000,0.00,0.09,-272.78,-272.85,-12,525,-942,22.4,24.1,0.9,22.3,24.7,1.1,5.73,1.78,0.6,27.7
2016-07-07 00:42:00,0.0,1.89069,0.00042,392.564,0.089,0.8402,0.0035,140.000,45.000,31788.35186,1.90675,396.637,36.119,45.070,45.000,0.00,0.09,-272.79,-272.84,-11,525,-942,22.4,24.0,0.8,22.3,24.6,1.1,5.73,1.90,0.6,27.7
2016-07-07 00:43:00,0.0,1.89096,0.00041,392.560,0.055,0.8392,0.0024,139.997,45.000,31786.71138,1.90700,396.631,36.125,45.070,45.000,0.00,0.09,-272.78,-272.85,-12,525,-942,22.3,24.0,0.8,22.3,24.5,1.0,5.73,1.79,0.6,27.7
2016-07-07 00:44:00,0.0,1.89042,0.00037,392.264,0.309,0.8475,0.0073,139.998,45.000,31788.55724,1.90660,396.382,36.124,45.070,45.000,0.00,0.09,-272.79,-272.85,-11,525,-942,22.3,24.3,0.9,22.3,24.6,1.1,5.73,1.88,0.6,27.7
2016-07-07 00:45:00,0.0,1.89030,0.00064,392.170,0.502,0.8591,0.0151,139.997,45.000,31788.13360,1.90670,396.319,36.126,45.070,45.000,0.00,0.09,-272.78,-272.84,-11,524,-942,22.3,24.5,1.1,22.3,25.1,1.4,5.73,1.80,0.6,27.7
2016-07-07 00:46:00,0.0,1.89064,0.00038,392.676,0.063,0.8369,0.0021,140.001,45.000,31788.69027,1.90665,396.736,36.127,45.070,45.000,0.00,0.09,-272.79,-272.84,-12,525,-942,22.3,23.9,0.7,22.3,24.5,1.1,5.73,1.88,0.6,27.7
2016-07-07 00:47:00,0.0,1.89079,0.00044,392.522,0.139,0.8423,0.0047,140.001,45.000,31787.56986,1.90688,396.607,36.135,45.070,45.000,0.00,0.09,-272.79,-272.85,-11,524,-942,22.4,24.1,0.8,22.3,24.5,1.1,5.73,1.80,0.6,27.7
2016-07-07 00:48:00,0.0,1.89060,0.00037,392.500,0.097,0.8454,0.0031,139.999,45.000,31787.75737,1.90676,396.600,36.156,45.070,45.000,0.00,0.09,-272.79,-272.84,-12,525,-942,22.3,24.2,0.9,22.3,24.6,1.1,5.73,1.87,0.6,27.6
2016-07-07 00:49:00,0.0,1.89048,0.00053,392.409,0.186,0.8503,0.0062,140.000,45.000,31788.29080,1.90671,396.534,36.180,45.070,45.000,0.00,0.09,-272.77,-272.84,-10,525,-942,22.3,24.4,0.9,22.3,24.7,1.2,5.73,1.82,0.6,27.6
2016-07-07 00:50:00,0.0,1.89053,0.00039,392.576,0.118,0.8451,0.0049,139.996,45.000,31788.83771,1.90671,396.673,36.148,45.069,44.999,0.00,0.09,-272.79,-272.84,-12,525,-942,22.3,24.1,0.9,22.3,24.7,1.2,5.73,1.84,0.6,27.6
2016-07-07 00:51:00,0.0,1.89049,0.00044,392.328,0.230,0.8484,0.0070,139.999,45.000,31790.28480,1.90669,396.448,36.128,45.069,44.999,0.00,0.09,-272.79,-272.85,-11,525,-942,22.3,24.4,1.0,22.3,24.7,1.1,5.73,1.85,0.6,27.6
2016-07-07 00:52:00,0.0,1.89058,0.00046,392.328,0.241,0.8553,0.0076,139.997,45.000,31787.58741,1.90694,396.469,36.125,45.069,45.000,0.00,0.09,-272.78,-272.84,-11,525,-942,22.3,24.5,1.0,22.3,25.0,1.3,5.73,1.80,0.6,27.6
2016-07-07 00:53:00,0.0,1.89050,0.00043,392.243,0.134,0.8550,0.0042,139.997,45.000,31787.95911,1.90683,396.389,36.125,45.069,45.000,0.00,0.09,-272.78,-272.85,-12,525,-942,22.3,24.5,1.0,22.3,24.9,1.3,5.73,1.89,0.6,27.6
2016-07-07 00:54:00,0.0,1.89039,0.00057,392.165,0.122,0.8578,0.0026,139.999,45.000,31787.89646,1.90680,396.327,36.123,45.069,45.000,0.00,0.09,-272.79,-272.84,-11,525,-941,22.3,24.6,1.1,22.3,25.0,1.3,5.73,1.78,0.6,27.7
2016-07-07 00:55:00,0.0,1.89044,0.00047,391.893,0.163,0.8663,0.0048,139.998,45.000,31786.05427,1.90703,396.091,36.125,45.070,45.000,0.00,0.09,-272.78,-272.84,-12,525,-942,22.3,24.9,1.3,22.3,25.2,1.4,5.73,1.90,0.6,27.7
2016-07-07 00:56:00,0.0,1.89052,0.00036,392.026,0.269,0.8660,0.0075,139.998,45.000,31787.54606,1.90707,396.219,36.125,45.070,45.000,0.00,0.09,-272.78,-272.84,-10,525,-942,22.2,24.9,1.2,22.3,25.3,1.5,5.73,1.77,0.6,27.6
2016-07-07 00:57:00,0.0,1.89078,0.00029,391.997,0.200,0.8641,0.0050,139.997,45.000,31786.67407,1.90726,396.184,36.125,45.070,45.000,0.00,0.09,-272.79,-272.84,-12,525,-942,22.2,24.8,1.1,22.2,25.2,1.4,5.73,1.91,0.6,27.6
2016-07-07 00:58:00,0.0,1.89072,0.00040,391.804,0.343,0.8697,0.0090,139.999,45.000,31788.53455,1.90737,396.030,36.119,45.070,45.000,0.00,0.09,-272.79,-272.84,-11,525,-942,22.2,25.0,1.3,22.3,25.3,1.5,5.73,1.75,0.6,27.6
2016-07-07 00:59:00,0.0,1.89042,0.00056,391.764,0.426,0.8771,0.0129,139.996,45.000,31785.88228,1.90718,396.001,36.087,45.070,45.000,0.00,0.09,-272.78,-272.84,-12,525,-941,22.3,25.2,1.4,22.3,25.7,1.7,5.73,1.94,0.6,27.6
2016-07-07 01:00:00,0.0,1.89105,0.00039,392.261,0.100,0.8589,0.0037,139.998,45.000,31785.61365,1.90750,396.425,36.077,45.070,45.000,0.00,0.09,-272.78,-272.84,-12,525,-941,22.2,24.7,1.1,22.2,25.2,1.4,5.73,1.73,0.6,27.6
2016-07-07 01:01:00,0.0,1.89107,0.00041,392.197,0.072,0.8610,0.0030,140.000,45.000,31786.12771,1.90751,396.369,36.083,45.070,45.000,0.00,0.09,-272.79,-272.85,-11,524,-941,22.2,24.8,1.1,22.3,25.2,1.4,5.73,1.95,0.6,27.6
2016-07-07 01:02:00,0.0,1.89093,0.00039,392.170,0.152,0.8603,0.0023,139.997,45.000,31785.56140,1.90742,396.351,36.094,45.070,45.000,0.00,0.09,-272.78,-272.84,-12,525,-941,22.2,24.8,1.1,22.3,25.1,1.3,5.73,1.71,0.6,27.6
2016-07-07 01:03:00,0.0,1.89160,0.00046,391.706,0.199,0.8754,0.0055,139.999,45.000,31784.14752,1.90835,395.942,36.080,45.070,45.000,0.00,0.09,-272.78,-272.85,-10,525,-941,22.2,25.2,1.4,22.3,25.4,1.5,5.73,1.97,0.6,27.6
2016-07-07 01:04:00,0.0,1.89118,0.00048,392.129,0.065,0.8656,0.0050,139.998,45.000,31781.88100,1.90772,396.320,36.068,45.070,45.000,0.00,0.09,-272.79,-272.85,-12,525,-941,22.2,24.9,1.2,22.3,25.4,1.5,5.73,1.69,0.6,27.6
2016-07-07 01:05:00,0.0,1.89158,0.00045,392.008,0.167,0.8658,0.0040,139.996,45.000,31780.75259,1.90815,396.211,36.064,45.070,45.000,0.00,0.09,-272.78,-272.84,-11,525,-941,22.2,25.0,1.2,22.3,25.3,1.4,5.73,1.99,0.6,27.6
2016-07-07 01:06:00,0.0,1.89145,0.00046,391.503,0.187,0.8824,0.0043,140.001,45.000,31782.36337,1.90835,395.776,36.068,45.070,45.000,0.00,0.09,-272.78,-272.84,-12,525,-941,22.3,25.5,1.5,22.2,25.7,1.7,5.73,1.67,0.6,27.6
2016-07-07 01:07:00,0.0,1.89144,0.00044,391.753,0.272,0.8811,0.0082,140.000,45.000,31783.42778,1.90831,396.019,36.075,45.070,45.000,0.00,0.09,-272.79,-272.85,-12,525,-941,22.2,25.4,1.5,22.2,25.8,1.7,5.73,2.00,0.6,27.6
2016-07-07 01:08:00,0.0,1.89110,0.00038,391.788,0.159,0.8750,0.0031,140.000,45.000,31785.74244,1.90786,396.039,36.078,45.070,45.000,0.00,0.09,-272.78,-272.84,-11,524,-941,22.2,25.3,1.4,22.2,25.6,1.6,5.73,1.67,0.6,27.6
2016-07-07 01:09:00,0.0,1.89054,0.00043,391.452,0.174,0.8896,0.0040,140.001,45.000,31787.75803,1.90755,395.750,36.086,45.070,45.000,0.00,0.09,-272.78,-272.84,-12,525,-941,22.2,25.7,1.6,22.2,25.9,1.8,5.73,2.00,0.6,27.6
2016-07-07 01:10:00,0.0,1.89075,0.00040,391.839,0.144,0.8825,0.0061,139.996,45.000,31786.17379,1.90765,396.116,36.079,45.070,45.000,0.00,0.09,-272.79,-272.84,-10,524,-941,22.2,25.5,1.5,22.3,25.9,1.8,5.73,1.67,0.6,27.6
2016-07-07 01:11:00,0.0,1.89049,0.00044,391.745,0.095,0.8883,0.0039,139.997,45.000,31785.87818,1.90749,396.051,36.078,45.070,45.000,0.00,0.09,-272.79,-272.85,-12,525,-941,22.1,25.7,1.6,22.2,26.0,1.8,5.73,2.00,0.6,27.6
2016-07-07 01:12:00,0.0,1.89032,0.00049,391.438,0.210,0.9067,0.0089,139.999,45.000,31788.16965,1.90770,395.829,36.068,45.070,45.000,0.00,0.09,-272.78,-272.84,-11,525,-941,22.2,26.3,1.9,22.2,26.4,2.0,5.73,1.68,0.6,27.6
2016-07-07 01:13:00,0.0,1.89080,0.00037,391.812,0.084,0.9025,0.0041,140.000,45.000,31786.38728,1.90803,396.186,36.064,45.070,45.000,0.00,0.09,-272.79,-272.84,-12,524,-942,22.2,26.2,1.9,22.2,26.6,2.1,5.73,2.00,0.6,27.6
2016-07-07 01:14:00,0.0,1.89071,0.00031,391.648,0.107,0.9105,0.0079,139.999,45.000,31784.95958,1.90816,396.069,36.063,45.070,45.001,0.00,0.09,-272.79,-272.85,-11,525,-941,22.1,26.5,2.0,22.2,26.7,2.1,5.73,1.68,0.6,27.7
2016-07-07 01:15:00,0.0,1.89060,0.00036,391.707,0.243,0.9148,0.0075,139.999,45.000,31786.64608,1.90813,396.140,36.084,45.071,45.001,0.00,0.09,-272.79,-272.85,-11,524,-941,22.1,26.6,2.0,22.2,26.9,2.3,5.73,1.99,0.6,27.7
2016-07-07 01:16:00,0.0,1.89038,0.00050,391.443,0.231,0.9256,0.0103,140.002,45.001,31788.81440,1.90811,395.929,36.115,45.071,45.001,0.00,0.09,-272.77,-272.84,-12,525,-942,22.1,26.9,2.2,22.2,27.1,2.3,5.73,1.69,0.6,27.6
2016-07-07 01:17:00,0.0,1.89058,0.00046,391.881,0.154,0.9034,0.0054,140.001,45.001,31789.49914,1.90789,396.275,36.102,45.071,45.001,0.00,0.09,-272.79,-272.85,-11,524,-942,22.2,26.3,1.9,22.2,26.8,2.2,5.73,1.99,0.6,27.6
2016-07-07 01:18:00,0.0,1.89020,0.00044,391.411,0.119,0.9248,0.0066,140.000,45.000,31788.15543,1.90790,395.891,36.065,45.071,45.001,0.00,0.09,-272.78,-272.85,-12,525,-942,22.2,26.9,2.3,22.2,27.0,2.3,5.73,1.68,0.6,27.6
2016-07-07 01:19:00,0.0,1.89010,0.00039,391.357,0.178,0.9249,0.0059,139.999,45.000,31788.47521,1.90784,395.843,36.064,45.070,45.000,0.00,0.09,-272.78,-272.85,-10,525,-941,22.1,27.0,2.2,22.2,27.3,2.5,5.73,2.00,0.6,27.6
2016-07-07 01:20:00,0.0,1.88950,0.00038,390.923,0.224,0.9478,0.0122,139.999,45.000,31789.23841,1.90768,395.518,36.068,45.070,45.000,0.00,0.09,-272.78,-272.85,-12,524,-941,22.1,27.7,2.6,22.2,27.6,2.6,5.73,1.67,0.6,27.6
2016-07-07 01:21:00,0.0,1.88954,0.00040,391.249,0.212,0.9425,0.0127,139.997,45.000,31787.39735,1.90758,395.810,36.083,45.069,45.000,0.00,0.09,-272.79,-272.85,-11,525,-941,22.1,27.5,2.5,22.2,27.9,2.7,5.73,2.01,0.6,27.6
2016-07-07 01:22:00,0.0,1.89058,0.00051,391.717,0.066,0.9177,0.0073,140.000,45.000,31786.68868,1.90817,396.172,36.107,45.069,44.999,0.00,0.09,-272.78,-272.84,-11,524,-941,22.2,26.7,2.1,22.2,27.3,2.4,5.73,1.66,0.6,27.6
2016-07-07 01:23:00,0.0,1.89034,0.00039,391.491,0.157,0.9259,0.0073,139.997,45.000,31785.26863,1.90806,395.984,36.108,45.069,44.999,0.00,0.09,-272.79,-272.84,-12,525,-941,22.1,26.9,2.2,22.2,27.2,2.4,5.73,2.01,0.6,27.6
2016-07-07 01:24:00,0.0,1.89048,0.00046,391.426,0.118,0.9298,0.0054,140.000,45.000,31786.60666,1.90831,395.932,36.117,45.069,44.999,0.00,0.09,-272.78,-272.85,-11,524,-941,22.1,27.1,2.3,22.2,27.4,2.5,5.73,1.66,0.6,27.6
2016-07-07 01:25:00,0.0,1.89093,0.00034,391.541,0.129,0.9136,0.0056,139.999,45.000,31785.87331,1.90844,395.977,36.099,45.069,44.999,0.00,0.09,-272.79,-272.84,-12,525,-941,22.1,26.6,2.0,22.2,27.1,2.3,5.73,2.01,0.6,27.6
2016-07-07 01:26:00,0.0,1.89055,0.00049,391.172,0.204,0.9350,0.0081,139.998,45.000,31782.21786,1.90846,395.700,36.084,45.069,44.999,0.00,0.09,-272.78,-272.84,-10,525,-941,22.1,27.2,2.3,22.2,27.4,2.5,5.73,1.67,0.6,27.6
2016-07-07 01:27:00,0.0,1.89047,0.00045,391.072,0.291,0.9346,0.0116,139.999,45.000,31784.16353,1.90839,395.603,36.072,45.069,45.000,0.00,0.09,-272.79,-272.85,-12,524,-941,22.1,27.4,2.4,22.1,27.5,2.5,5.73,2.00,0.6,27.6
2016-07-07 01:28:00,0.0,1.89055,0.00049,391.079,0.178,0.9469,0.0083,139.998,45.000,31784.83633,1.90865,395.669,36.069,45.070,45.000,0.00,0.09,-272.78,-272.84,-11,525,-941,22.1,27.6,2.5,22.2,27.9,2.8,5.73,1.68,0.6,27.6
2016-07-07 01:29:00,0.0,1.89100,0.00054,391.432,0.117,0.9266,0.0042,140.001,45.000,31786.86286,1.90882,395.922,36.088,45.070,45.000,0.00,0.09,-272.78,-272.84,-11,524,-941,22.1,27.0,2.2,22.2,27.5,2.5,5.73,1.99,0.6,27.6
2016-07-07 01:30:00,0.0,1.89086,0.00043,391.696,0.120,0.9128,0.0071,139.997,45.000,31784.13721,1.90831,396.124,36.099,45.070,45.000,0.00,0.09,-272.78,-272.84,-12,525,-941,22.1,26.6,2.0,22.2,27.1,2.3,5.73,1.68,0.6,27.6
2016-07-07 01:31:00,0.0,1.89099,0.00065,391.628,0.109,0.9134,0.0057,139.998,45.000,31784.82962,1.90852,396.058,36.111,45.070,45.000,0.00,0.09,-272.79,-272.85,-11,524,-941,22.1,26.7,2.0,22.2,26.9,2.2,5.73,1.99,0.6,27.6
2016-07-07 01:32:00,0.0,1.89014,0.00045,391.279,0.161,0.9397,0.0093,139.999,45.000,31785.79222,1.90813,395.834,36.116,45.070,45.000,0.00,0.09,-272.77,-272.85,-12,525,-941,22.1,27.5,2.5,22.2,27.5,2.5,5.73,1.69,0.6,27.6
2016-07-07 01:33:00,0.0,1.89070,0.00045,391.261,0.168,0.9399,0.0040,140.002,45.000,31785.77811,1.90875,395.827,36.115,45.070,45.000,0.00,0.09,-272.79,-272.84,-10,525,-941,22.1,27.5,2.5,22.2,27.8,2.7,5.73,1.98,0.6,27.6
2016-07-07 01:34:00,0.0,1.89090,0.00046,390.935,0.109,0.9569,0.0058,139.999,45.000,31788.39369,1.90923,395.570,36.103,45.070,45.000,0.00,0.09,-272.78,-272.86,-12,524,-941,22.1,28.1,2.7,22.1,28.2,2.8,5.73,1.71,0.6,27.6
2016-07-07 01:35:00,0.0,1.89141,0.00043,391.293,0.110,0.9398,0.0084,139.998,45.000,31786.82451,1.90940,395.850,36.072,45.070,45.000,0.00,0.09,-272.79,-272.85,-11,525,-941,22.1,27.5,2.5,22.2,28.0,2.8,5.73,1.95,0.6,27.6
2016-07-07 01:36:00,0.0,1.89168,0.00036,390.849,0.207,0.9523,0.0130,140.001,45.000,31787.84952,1.90993,395.472,36.062,45.070,45.000,0.00,0.09,-272.77,-272.84,-11,524,-941,22.1,27.9,2.7,22.1,27.9,2.7,5.73,1.73,0.6,27.6
2016-07-07 01:37:00,0.0,1.89239,0.00058,390.933,0.089,0.9555,0.0084,139.998,45.000,31789.90505,1.91073,395.563,36.057,45.070,45.000,0.00,0.09,-272.79,-272.84,-12,525,-942,22.0,28.0,2.7,22.2,28.3,2.9,5.73,1.93,0.6,27.6
2016-07-07 01:38:00,0.0,1.89125,0.00078,390.787,0.197,0.9705,0.0107,139.997,45.000,31789.29841,1.90992,395.487,36.031,45.070,45.000,0.00,0.09,-272.79,-272.85,-11,524,-941,22.0,28.4,2.9,22.1,28.5,3.0,5.73,1.77,0.6,27.6
2016-07-07 01:39:00,0.0,1.89100,0.00041,391.116,0.081,0.9597,0.0048,139.999,45.000,31787.30305,1.90942,395.773,36.015,45.070,45.000,0.00,0.09,-272.78,-272.84,-12,525,-941,22.1,28.2,2.8,22.1,28.5,3.0,5.73,1.90,0.6,27.6
2016-07-07 01:40:00,0.0,1.89058,0.00052,391.101,0.162,0.9747,0.0075,139.997,45.000,31787.25406,1.90928,395.827,36.043,45.070,45.001,0.00,0.09,-272.78,-272.84,-10,524,-942,22.0,28.6,3.0,22.1,28.8,3.2,5.73,1.79,0.6,27.6
2016-07-07 01:41:00,0.0,1.89052,0.00046,391.280,0.073,0.9652,0.0047,139.998,45.000,31787.64122,1.90909,395.965,36.064,45.071,45.001,0.00,0.09,-272.80,-272.85,-12,524,-942,22.0,28.4,2.8,22.1,28.7,3.1,5.73,1.90,0.6,27.6
2016-07-07 01:42:00,0.0,1.88997,0.00035,391.197,0.083,0.9730,0.0054,139.999,45.001,31789.56977,1.90864,395.916,36.101,45.071,45.002,0.00,0.09,-272.78,-272.84,-11,525,-942,22.1,28.6,3.0,22.1,28.8,3.2,5.73,1.78,0.6,27.6
2016-07-07 01:43:00,0.0,1.89053,0.00032,391.505,0.055,0.9601,0.0069,140.000,45.001,31790.21571,1.90893,396.168,36.120,45.071,45.001,0.00,0.09,-272.78,-272.84,-12,524,-942,22.0,28.2,2.8,22.1,28.6,3.1,5.73,1.89,0.6,27.6
2016-07-07 01:44:00,0.0,1.89005,0.00025,391.346,0.111,0.9663,0.0043,139.998,45.000,31790.16500,1.90859,396.041,36.121,45.071,45.000,0.00,0.09,-272.78,-272.85,-12,525,-942,22.0,28.4,2.9,22.1,28.5,3.0,5.73,1.81,0.6,27.6
2016-07-07 01:45:00,0.0,1.88948,0.00041,391.148,0.116,0.9807,0.0055,140.000,45.000,31788.10514,1.90830,395.907,36.125,45.070,45.000,0.00,0.09,-272.79,-272.84,-11,524,-941,22.1,28.8,3.1,22.1,29.0,3.2,5.73,1.85,0.6,27.5
2016-07-07 01:46:00,0.0,1.89001,0.00056,391.549,0.097,0.9663,0.0113,140.000,45.000,31788.25745,1.90853,396.238,36.127,45.069,45.000,0.00,0.09,-272.77,-272.84,-12,525,-941,22.0,28.4,2.9,22.1,28.9,3.2,5.73,1.84,0.6,27.6